Temperature
9 7 7 8 9 9 9 8 9 9 10 10 9 9 9 10 10 10 10 10 10 10 10 10 10 10 11 11 11 11 11 11 11 11 11 11 11 11 11 11 11 11 10 10
7 7 8 9 9 9 9 8 9 9 10 9 9 9 9 9 10 10 10 10 10 10 10 10 10 10 10 10 11 11 11 11 11 11 11 11 11 10 10 10 10 10 10 10
7 8 9 9 9 9 8 8 8 9 9 9 9 9 9 9 10 10 11 11 11 11 11 10 10 10 10 10 10 10 10 10 10 10 10 10 10 10 10 9 9 9 9 9
7 8 9 8 8 9 8 9 9 9 8 7 9 8 9 9 9 9 10 10 11 11 11 10 10 10 10 10 10 10 10 10 10 10 10 10 9 9 9 9 9 9 9 9
7 8 8 8 8 9 9 9 9 9 8 8 8 8 8 8 9 9 9 10 11 11 11 11 11 10 10 10 10 10 10 10 10 9 9 9 9 9 9 9 8 8 8 8
8 8 8 8 9 9 9 8 8 6 6 8 8 8 8 7 8 9 9 10 11 11 11 11 10 10 10 10 9 9 9 9 9 9 9 9 9 9 8 8 8 8 8 8
7 8 8 8 8 8 8 6 6 7 6 7 7 7 7 8 9 9 10 10 11 11 10 10 10 10 10 9 9 9 9 9 9 9 9 8 8 8 8 8 8 8 8 8
6 6 7 8 8 8 8 7 6 7 7 6 7 7 7 9 9 10 10 11 11 10 10 10 10 10 10 9 9 9 9 9 8 8 8 8 8 8 8 8 7 7 7 7
6 6 7 8 8 8 8 6 7 5 6 6 6 7 8 9 9 9 9 10 10 10 10 10 10 10 9 9 9 9 8 8 8 8 8 8 8 8 7 7 7 7 7 7
7 6 7 7 8 8 8 7 5 6 7 7 7 6 7 8 8 8 8 9 10 10 10 10 10 9 9 9 9 8 8 8 8 8 8 7 7 7 7 7 7 7 6 6
7 6 6 7 7 7 7 7 6 5 5 6 7 7 7 8 8 8 8 9 10 10 10 10 9 9 9 9 8 8 8 8 8 7 7 7 7 7 7 7 6 6 6 6
6 5 5 6 7 7 7 7 6 6 6 5 5 6 8 8 8 8 9 10 10 10 10 10 9 9 9 9 8 8 8 8 7 7 7 7 7 7 7 6 6 6 6 6
6 5 5 6 7 6 7 7 7 5 5 4 5 6 7 7 8 9 9 10 10 10 10 9 9 9 9 8 8 8 8 7 7 7 7 7 7 6 6 6 6 6 5 5
6 5 5 7 7 6 6 6 6 5 4 4 4 5 6 7 7 8 9 9 9 9 9 9 9 9 8 8 8 8 7 7 7 7 7 7 6 6 6 6 5 5 5 5
5 4 5 5 5 5 5 6 6 5 5 5 5 5 6 6 6 8 9 9 9 9 9 8 8 8 8 8 7 7 7 7 7 6 6 6 6 6 6 5 5 5 5 5
4 4 4 4 5 5 5 5 5 5 5 5 5 5 6 7 8 8 8 8 8 8 8 8 8 8 7 7 7 7 7 7 6 6 6 6 6 5 5 5 5 5 4 4
3 4 4 4 4 5 5 5 5 5 5 5 5 6 6 6 7 8 8 8 8 8 7 7 7 7 7 7 7 7 6 6 6 6 6 6 5 5 5 5 4 4 4 4
3 3 3 3 4 5 7 7 6 5 6 5 6 6 6 7 8 8 8 8 7 7 7 7 7 7 7 6 6 6 6 6 6 5 5 5 5 5 4 4 4 4 4 3
3 3 3 3 3 4 6 6 6 6 6 6 5 6 6 7 6 7 7 7 7 7 6 6 6 6 6 6 6 6 6 5 5 5 5 5 4 4 4 4 4 3 3 3
2 2 2 3 4 5 7 7 7 6 6 6 6 5 6 6 4 5 7 7 6 6 6 6 5 5 5 5 5 5 5 5 5 5 4 4 4 4 4 3 3 3 3 3
2 2 2 2 3 4 5 6 7 6 6 7 6 6 6 5 5 6 6 6 6 5 5 5 5 5 5 5 5 5 5 4 4 4 4 4 4 3 3 3 3 3 2 2
2 1 1 2 2 4 6 5 5 6 7 7 7 6 6 6 6 6 6 5 5 5 5 5 4 4 4 4 4 4 4 4 4 4 3 3 3 3 2 2 2 2 2 2
2 3 3 3 5 6 6 6 7 7 7 6 6 6 6 5 5 5 5 5 5 4 4 4 4 4 4 4 3 3 3 3 3 3 3 3 3 2 2 2 2 2 1 1
2 3 2 2 3 5 6 6 6 6 6 6 6 5 5 5 5 4 4 4 4 4 4 4 3 3 3 3 3 3 3 3 3 3 3 2 2 2 2 1 1 1 1 0
3 3 2 2 3 4 6 6 6 6 6 5 5 5 5 4 4 4 4 4 4 3 3 3 3 3 3 3 3 3 2 2 2 2 2 2 2 2 1 1 1 0 0 -0
2 3 3 4 4 4 5 6 6 5 5 5 5 4 4 4 3 3 3 3 3 3 3 3 3 3 3 3 3 2 2 2 2 2 2 2 1 1 1 0 0 0 -0 -1
Wind_Speed
6 7 4 2 1 4 5 5 4 0 0 3 2 1 2 2 4 6 6 6 6 6 5 5 5 5 5 4 4 3 3 2 3 2 2 2 2 2 3 4 6 7 8 8
7 6 4 2 3 5 6 7 4 2 2 2 2 1 2 3 4 6 7 7 7 6 5 5 5 4 4 4 3 3 2 2 2 1 0 0 0 1 1 3 5 6 7 7
6 3 5 5 6 6 5 3 3 3 3 4 3 3 3 3 2 3 5 6 7 9 8 7 6 5 5 4 4 3 2 2 1 1 1 2 2 2 2 3 3 4 5 6
5 5 5 6 5 4 3 1 2 3 4 1 2 1 5 3 3 4 5 6 7 7 7 7 7 7 6 6 4 4 3 2 1 1 1 1 1 0 1 1 2 3 4 5
4 5 6 6 4 3 1 1 3 3 4 2 2 2 6 1 4 7 7 7 7 7 7 8 8 8 7 6 5 4 3 2 2 1 2 2 1 1 1 1 2 2 3 4
3 3 3 2 3 2 2 5 6 6 5 1 1 3 5 4 6 6 6 6 6 6 6 6 6 5 5 4 4 4 4 3 3 2 2 3 3 2 1 1 2 2 2 2
7 6 5 3 4 7 7 6 5 5 4 4 3 2 7 6 6 6 6 7 6 6 6 6 6 6 6 6 5 5 5 4 4 3 3 4 4 3 4 3 2 2 1 2
3 5 5 4 2 1 2 5 5 3 3 4 4 4 7 5 3 1 2 3 5 5 5 6 7 7 7 7 6 6 6 5 5 4 4 4 4 3 3 4 3 3 2 3
2 3 4 3 2 1 2 2 4 5 1 2 5 6 7 1 2 1 2 3 4 5 5 6 6 6 6 7 7 7 7 6 5 5 5 4 4 4 4 4 3 3 3 2
2 1 4 4 3 3 2 3 4 3 2 2 5 5 4 5 3 2 2 3 4 4 5 5 6 6 6 6 6 5 6 7 6 6 5 4 5 5 5 4 4 4 3 2
2 1 4 3 0 2 1 1 3 3 3 4 3 6 5 5 4 4 5 5 5 5 6 6 5 5 5 5 5 6 6 6 6 6 5 5 5 5 4 4 5 4 4 3
2 3 2 4 4 2 3 3 4 3 2 3 3 7 5 3 3 3 4 4 4 5 5 5 5 4 4 5 5 6 6 7 7 6 6 6 5 5 5 5 5 5 4 3
2 3 2 4 3 2 1 2 3 4 3 4 4 7 4 1 1 2 3 4 5 5 5 4 4 5 5 6 6 6 6 7 7 6 6 6 6 6 6 6 5 4 4 4
2 2 5 6 5 3 4 4 4 4 4 5 8 8 7 5 4 4 4 4 4 4 4 4 4 5 6 6 6 6 7 6 6 6 6 7 7 7 7 6 5 5 5 4
3 2 4 7 7 6 7 9 8 9 9 9 8 8 10 8 6 5 4 4 3 3 3 4 5 5 5 5 5 6 6 6 5 6 7 8 7 6 6 6 6 5 5 5
2 2 2 5 5 5 8 11 11 11 9 11 9 11 9 6 4 4 4 3 3 4 5 5 5 5 5 6 6 6 6 6 5 6 8 7 6 6 6 6 6 5 5 5
2 2 1 5 6 6 8 9 10 7 7 9 11 10 4 3 4 5 4 4 4 5 5 5 5 6 6 7 6 6 7 5 5 6 7 6 6 6 6 6 5 6 6 5
5 4 2 3 3 6 7 2 6 7 6 8 7 5 4 5 5 5 4 3 3 4 5 5 6 6 6 5 5 5 4 4 5 6 6 6 6 6 5 5 6 6 5 5
5 5 3 2 4 8 8 4 5 6 5 5 7 6 4 3 2 4 3 2 4 4 5 6 6 6 5 6 5 4 4 4 4 6 6 6 6 6 6 6 7 5 5 5
3 4 3 3 4 7 5 2 2 3 4 4 4 4 3 2 1 5 4 4 5 5 4 5 5 5 5 5 4 4 5 5 6 7 6 6 5 6 7 7 6 5 5 6
4 4 6 6 7 9 7 2 4 3 5 2 3 3 3 5 7 5 5 5 5 5 6 5 5 5 5 5 3 4 5 6 7 6 5 4 5 6 6 5 4 4 4 4
9 8 8 7 7 9 5 6 6 7 2 3 3 4 5 6 7 6 6 6 6 6 6 6 5 6 6 4 4 5 7 7 5 4 4 5 5 5 4 4 4 4 4 5
9 10 7 10 10 5 5 7 5 4 4 4 4 5 5 6 6 6 6 7 7 7 6 5 6 7 6 5 4 6 7 5 4 4 5 5 4 4 4 4 4 3 4 4
5 5 5 6 9 7 6 5 4 4 5 6 6 5 5 6 7 7 7 7 7 7 7 6 5 6 7 6 5 6 7 5 4 5 5 4 4 4 3 3 4 4 5 5
7 6 5 7 7 5 5 6 6 6 6 6 5 5 6 7 8 7 7 7 7 7 6 5 6 7 8 7 7 6 6 4 4 5 5 4 4 4 4 4 5 6 6 7
7 8 8 9 7 6 6 6 6 6 6 6 5 5 5 6 7 7 7 7 7 7 6 6 6 7 7 7 7 7 5 5 5 5 4 4 4 4 4 4 4 7 8 10
Wind_Direction
22 54 39 340 138 146 127 113 107 123 346 89 111 156 231 195 170 175 181 180 183 189 185 166 155 145 129 116 112 104 86 55 51 43 44 39 14 2 8 18 27 34 31 26
40 27 333 338 67 91 94 97 86 48 32 91 103 296 258 227 201 194 189 190 191 189 180 174 166 159 153 152 150 139 124 94 71 72 75 161 182 356 354 8 16 24 30 24
74 326 346 53 59 70 56 107 131 121 51 53 77 343 290 269 243 216 200 194 193 190 189 187 182 182 176 179 177 170 165 142 114 76 60 40 38 23 11 1 356 359 18 28
43 351 28 52 37 58 51 358 104 100 87 354 97 233 272 253 260 244 226 207 204 199 189 186 185 188 194 198 183 173 173 172 179 129 120 129 134 199 280 314 327 343 8 17
24 3 29 40 355 26 155 2 51 75 95 41 29 129 284 259 240 246 237 220 209 199 189 191 194 194 196 190 183 186 181 190 201 183 167 151 171 210 259 314 327 334 351 1
13 354 27 349 327 12 69 45 45 45 63 29 270 164 270 238 227 242 233 221 206 197 194 197 196 185 185 185 188 191 193 209 210 204 197 192 205 219 236 273 286 296 320 330
3 356 354 5 19 16 50 70 42 15 12 263 295 201 251 257 246 233 223 211 201 192 184 188 188 191 193 195 201 203 202 218 217 212 217 215 220 221 225 240 244 259 286 297
40 332 330 359 51 10 19 114 141 174 222 282 323 246 260 282 297 254 182 173 177 185 190 196 199 200 200 203 203 203 209 220 218 216 224 225 225 224 231 232 228 233 242 255
96 284 308 327 343 89 85 93 155 132 147 283 288 293 306 329 5 49 110 142 181 200 204 208 208 209 209 209 209 207 210 220 222 223 225 229 231 226 230 234 230 235 241 246
138 289 304 315 15 12 122 137 89 109 141 270 300 288 266 269 261 246 204 207 222 221 225 225 217 218 219 217 216 213 213 218 222 222 225 229 229 228 229 226 232 237 242 240
88 133 317 348 274 222 89 98 106 115 153 164 260 274 239 232 221 220 229 231 230 228 232 232 228 226 224 220 216 218 222 224 227 225 226 230 233 232 229 229 234 234 236 229
56 119 280 275 279 243 193 185 145 150 223 179 197 267 278 233 210 208 233 246 246 239 239 233 229 229 228 228 224 224 225 226 228 224 223 228 233 232 232 236 235 228 228 226
76 116 6 342 331 350 286 226 169 143 143 177 198 260 306 329 291 268 254 257 258 253 249 244 241 240 241 239 235 232 231 231 230 220 223 229 231 229 233 235 233 226 223 223
110 157 191 215 230 216 248 249 205 161 185 219 227 251 284 282 278 287 282 271 265 264 256 250 250 253 254 250 244 241 243 237 231 221 223 232 233 228 230 229 226 223 217 218
119 213 246 256 261 246 242 242 222 212 208 214 236 236 253 255 253 260 261 268 276 285 278 263 258 259 263 262 258 251 249 244 232 225 228 236 237 229 225 225 225 222 218 219
135 204 287 288 277 262 261 248 232 228 225 234 251 265 251 244 241 256 258 262 264 275 278 278 277 274 270 263 259 256 253 248 233 230 236 239 235 227 225 225 222 220 222 221
182 170 238 278 309 324 272 238 209 208 209 200 228 243 246 251 259 257 255 253 257 272 279 284 282 272 267 261 253 250 249 248 238 238 242 240 231 230 230 225 219 220 220 217
168 159 188 278 344 253 248 244 185 200 234 216 224 239 229 229 243 247 231 230 262 279 284 287 283 278 274 265 259 258 254 246 244 246 247 242 231 232 232 225 227 226 218 215
175 167 185 211 268 277 288 254 183 188 254 225 221 238 237 242 307 289 247 227 248 264 270 269 272 274 278 277 269 267 263 252 247 250 249 241 230 230 229 229 232 229 219 220
116 139 172 196 236 251 253 224 152 121 261 244 194 215 224 140 294 269 262 274 278 279 275 277 284 287 285 283 275 265 263 258 254 253 252 246 232 228 231 232 232 226 218 222
153 176 201 213 238 264 256 206 127 188 243 205 181 203 198 203 224 249 272 277 276 283 283 284 285 283 278 281 274 264 265 260 259 259 256 250 238 232 234 232 227 224 219 217
180 183 197 189 216 253 219 148 186 220 220 199 210 217 226 240 253 262 266 272 280 285 287 286 283 282 281 276 265 267 267 266 267 260 255 251 246 239 232 224 226 218 210 217
200 196 191 198 217 242 191 198 211 186 203 221 226 240 242 254 263 267 271 274 277 276 280 280 275 282 285 275 256 263 270 270 267 260 256 254 250 238 227 219 221 221 213 219
241 197 197 240 256 255 246 236 233 216 222 233 236 243 240 251 263 271 274 276 277 275 276 276 275 280 284 279 266 257 267 264 256 256 259 254 246 245 233 224 217 217 219 222
226 195 213 246 263 275 255 226 228 237 238 241 243 236 240 250 261 263 269 274 273 275 274 269 267 270 274 277 273 268 263 251 250 253 252 250 240 235 236 232 226 224 225 220
206 201 207 236 226 216 240 230 224 228 237 238 245 259 256 245 254 263 266 267 270 274 274 275 271 270 273 275 275 273 261 240 240 254 253 246 240 236 233 239 258 242 235 241
Height
1506 1510 1514 1511 1509 1510 1511 1515 1517 1516 1513 1515 1518 1518 1518 1517 1518 1519 1520 1520 1521 1523 1525 1526 1527 1528 1529 1529 1530 1530 1530 1530 1530 1529 1529 1529 1528 1527 1527 1526 1525 1524 1524 1523
1513 1515 1513 1510 1509 1510 1513 1517 1519 1517 1515 1517 1520 1520 1518 1517 1517 1517 1518 1519 1520 1521 1523 1524 1526 1527 1528 1528 1529 1529 1529 1529 1529 1528 1528 1527 1527 1526 1525 1524 1523 1523 1522 1522
1517 1518 1512 1511 1512 1513 1516 1519 1519 1519 1519 1519 1521 1523 1520 1517 1516 1516 1517 1517 1518 1520 1521 1523 1524 1525 1526 1527 1527 1528 1528 1527 1527 1527 1526 1526 1525 1525 1524 1523 1522 1521 1520 1520
1519 1517 1515 1515 1517 1516 1520 1517 1517 1518 1524 1529 1526 1532 1522 1519 1517 1516 1515 1516 1517 1518 1520 1521 1522 1523 1524 1525 1526 1526 1526 1526 1526 1525 1525 1524 1524 1523 1523 1522 1521 1520 1519 1518
1522 1520 1519 1519 1520 1517 1519 1517 1518 1520 1524 1530 1528 1533 1527 1519 1518 1515 1513 1513 1514 1516 1518 1519 1520 1522 1523 1524 1524 1524 1524 1524 1524 1524 1523 1523 1522 1521 1520 1520 1519 1518 1517 1516
1523 1521 1521 1521 1519 1518 1518 1520 1522 1528 1531 1533 1528 1533 1528 1521 1515 1512 1511 1511 1513 1515 1516 1518 1519 1520 1521 1522 1522 1522 1522 1522 1522 1522 1521 1521 1520 1519 1518 1517 1517 1516 1515 1514
1528 1525 1523 1522 1521 1521 1522 1530 1541 1539 1543 1538 1531 1531 1527 1514 1510 1509 1508 1509 1510 1513 1515 1516 1517 1518 1519 1519 1520 1520 1520 1520 1520 1519 1519 1518 1517 1517 1516 1515 1514 1513 1512 1511
1535 1535 1527 1525 1525 1526 1526 1530 1541 1543 1543 1542 1533 1531 1521 1511 1509 1507 1507 1508 1510 1511 1513 1514 1515 1516 1517 1517 1518 1518 1518 1518 1517 1517 1516 1516 1515 1514 1513 1512 1511 1510 1510 1509
1537 1536 1528 1526 1525 1525 1527 1532 1532 1541 1543 1543 1537 1529 1517 1510 1510 1509 1509 1509 1509 1511 1512 1513 1514 1514 1515 1515 1516 1516 1515 1515 1515 1514 1514 1513 1512 1511 1510 1509 1508 1507 1507 1505
1533 1536 1531 1528 1526 1526 1527 1529 1537 1539 1540 1540 1536 1532 1526 1514 1512 1510 1510 1509 1510 1510 1511 1512 1512 1512 1513 1513 1513 1513 1513 1512 1512 1511 1511 1510 1509 1508 1507 1506 1505 1504 1503 1502
1532 1537 1535 1531 1529 1529 1529 1530 1534 1540 1541 1542 1538 1532 1515 1512 1510 1509 1509 1509 1509 1509 1510 1510 1510 1510 1511 1510 1510 1510 1510 1509 1509 1508 1507 1507 1506 1505 1504 1502 1502 1501 1500 1499
1533 1538 1539 1533 1529 1527 1527 1528 1533 1538 1539 1543 1545 1534 1510 1509 1508 1508 1508 1508 1508 1508 1508 1508 1508 1508 1508 1507 1507 1507 1506 1506 1505 1505 1504 1503 1502 1501 1500 1499 1498 1498 1497 1496
1533 1537 1540 1534 1534 1531 1528 1527 1528 1533 1538 1543 1542 1529 1510 1508 1508 1507 1507 1506 1506 1506 1506 1506 1506 1506 1505 1505 1504 1503 1503 1502 1502 1501 1500 1499 1499 1498 1497 1496 1495 1494 1493 1492
1532 1536 1539 1533 1529 1529 1529 1527 1527 1531 1538 1538 1532 1523 1513 1509 1508 1506 1506 1505 1504 1504 1504 1504 1503 1503 1502 1501 1501 1500 1499 1499 1498 1497 1496 1495 1494 1494 1493 1492 1491 1490 1489 1488
1531 1535 1533 1531 1528 1527 1526 1524 1524 1526 1526 1528 1522 1519 1510 1507 1506 1505 1504 1503 1503 1502 1501 1501 1500 1500 1499 1498 1497 1496 1495 1494 1493 1492 1492 1491 1490 1489 1488 1487 1486 1486 1485 1484
1531 1533 1532 1530 1524 1524 1522 1518 1518 1518 1518 1517 1515 1512 1504 1503 1503 1502 1502 1501 1500 1500 1499 1498 1497 1496 1495 1494 1493 1492 1491 1490 1489 1488 1487 1486 1485 1484 1483 1482 1482 1481 1480 1479
1532 1533 1533 1532 1527 1523 1519 1508 1510 1510 1508 1509 1510 1505 1501 1501 1501 1500 1499 1499 1498 1497 1496 1495 1494 1493 1491 1490 1489 1487 1486 1485 1484 1483 1482 1481 1480 1479 1479 1478 1477 1476 1475 1474
1530 1532 1534 1534 1530 1524 1506 1499 1500 1503 1501 1501 1499 1498 1498 1498 1498 1497 1497 1496 1495 1494 1493 1492 1491 1489 1488 1486 1484 1483 1481 1480 1479 1478 1477 1476 1475 1474 1473 1472 1471 1471 1470 1469
1525 1529 1533 1534 1532 1520 1504 1498 1498 1500 1499 1496 1496 1495 1495 1496 1496 1495 1494 1493 1493 1492 1490 1489 1487 1485 1483 1482 1480 1478 1477 1475 1474 1473 1472 1471 1470 1469 1468 1467 1466 1465 1465 1464
1525 1527 1532 1531 1526 1513 1499 1495 1494 1497 1499 1492 1492 1493 1493 1494 1497 1493 1491 1490 1489 1488 1486 1484 1482 1480 1479 1477 1475 1474 1472 1471 1469 1468 1467 1466 1465 1463 1462 1461 1461 1460 1459 1458
1527 1528 1529 1528 1524 1510 1496 1494 1495 1501 1495 1491 1490 1490 1491 1491 1491 1489 1488 1486 1485 1483 1482 1480 1478 1476 1474 1472 1470 1468 1467 1465 1464 1463 1462 1460 1459 1458 1457 1456 1455 1455 1454 1453
1517 1522 1522 1522 1521 1508 1490 1492 1494 1491 1488 1488 1488 1488 1488 1487 1486 1485 1484 1482 1481 1479 1477 1475 1473 1471 1470 1468 1465 1463 1462 1461 1459 1458 1456 1455 1454 1453 1452 1451 1450 1449 1448 1447
1506 1503 1503 1503 1496 1488 1486 1485 1485 1486 1486 1485 1485 1485 1484 1483 1482 1481 1479 1478 1476 1474 1473 1471 1468 1466 1465 1463 1461 1458 1457 1456 1454 1452 1451 1450 1448 1447 1446 1445 1444 1443 1443 1442
1496 1494 1496 1495 1487 1484 1483 1483 1483 1483 1483 1482 1482 1481 1480 1479 1477 1476 1474 1473 1471 1470 1468 1466 1464 1461 1459 1458 1456 1454 1452 1451 1449 1447 1446 1444 1443 1442 1441 1440 1439 1438 1437 1436
1489 1489 1490 1487 1482 1480 1479 1479 1479 1479 1478 1478 1477 1476 1475 1474 1472 1471 1469 1468 1466 1464 1463 1461 1458 1456 1454 1453 1451 1449 1447 1445 1443 1442 1440 1439 1438 1436 1435 1434 1433 1432 1431 1431
1481 1482 1483 1479 1476 1476 1475 1475 1475 1474 1473 1473 1472 1470 1470 1469 1467 1466 1464 1463 1461 1459 1457 1455 1453 1451 1449 1447 1445 1444 1442 1440 1438 1436 1435 1434 1432 1431 1430 1429 1428 1427 1426 1426